Regional Weather Roundup
Issued by NWS

Home | Current Version | Previous Version | Text Only | Print | Product List | Glossary On
Versions: 1 2 3 4 5 6 7 8 9 10 11 12 13 14 15 16 17 18 19 20 21 22 23 24 25 26 27 28 29 30 31 32 33 34 35 36 37 38 39 40 41 42 43 44 45 46 47 48 49 50
000
ASUS45 KPSR 251410
RWRAZ

ARIZONA HOURLY REGIONAL WEATHER ROUNDUP
NATIONAL WEATHER SERVICE PHOENIX AZ
700 AM MST MON MAY 25 2015

NOTE: FAIR INDICATES FEW OR NO CLOUDS BELOW 12,000 FEET WITH NO
SIGNIFICANT WEATHER AND/OR OBSTRUCTIONS TO VISIBILITY.

AZZ001>003-036-251500-
NORTHWEST ARIZONA

CITY           SKY/WX    TMP DP  RH WIND       PRES   REMARKS
BULLHEAD CITY  MOSUNNY   72  55  56 N10       29.87R
KINGMAN        PTSUNNY   59  49  69 CALM      29.97R
$$

AZZ004>008-015-016-018-251500-
NORTH CENTRAL ARIZONA

CITY           SKY/WX    TMP DP  RH WIND       PRES   REMARKS
GRAND CANYON   LGT RAIN  45  43  93 CALM      30.08R
WILLIAMS       CLOUDY    46  45  93 S6        30.15S
PRESCOTT       CLOUDY    55  40  56 SW3       30.04R
FLAGSTAFF      CLOUDY    45  43  93 W5        30.09R
PAYSON         MOSUNNY   55  37  50 CALM      30.06R
PAGE           CLOUDY    57  49  74 CALM      29.97R
$$

AZZ009>014-017-251500-
NORTHEAST ARIZONA

CITY           SKY/WX    TMP DP  RH WIND       PRES   REMARKS
WINSLOW        PTSUNNY   56  41  57 W5        30.02R
SAINT JOHNS    CLOUDY    56  35  45 SW7       30.04R
WINDOW ROCK    PTSUNNY   49  39  68 S3        30.05S
SHOW LOW       PTSUNNY   46  36  66 S6        30.10R
$$

AZZ023-251500-
GREATER PHOENIX AREA

CITY           SKY/WX    TMP DP  RH WIND       PRES   REMARKS
PHOENIX        MOSUNNY   70  44  39 E7        29.89R
BUCKEYE        SUNNY     70  43  37 CALM      29.91R
GLENDALE       MOSUNNY   70  46  43 CALM      29.91R
LUKE AFB       SUNNY     67  43  41 NW5       29.89R
DEER VALLEY    SUNNY     68  42  38 SE3       29.90R
SCOTTSDALE     SUNNY     66  43  43 CALM      29.92R
MESA-FALCON    SUNNY     68  39  34 CALM      29.91R
MESA-GATEWAY   MOSUNNY   64  41  42 SE8       29.93R
CHANDLER       MOSUNNY   66  45  45 CALM      29.91R
$$

AZZ027-028-251500-
SOUTHWEST MARICOPA COUNTY AND PINAL COUNTY

CITY           SKY/WX    TMP DP  RH WIND       PRES   REMARKS
CASA GRANDE    SUNNY     66  43  42 CALM      29.91R
GILA BEND      FAIR      70  48  46 SW5       29.89R
$$

AZZ503-504-507>509-251500-
SOUTHEAST ARIZONA

CITY           SKY/WX    TMP DP  RH WIND       PRES   REMARKS
TUCSON         SUNNY     61  40  45 S5        29.99R
DAVIS-MONTHAN  SUNNY     63  40  42 S10       29.97R
RYAN FIELD       N/A     61  41  48 CALM      29.98R
NOGALES        SUNNY     55  37  50 CALM      30.03R
SIERRA VISTA   SUNNY     58  38  46 SE2       30.06R
DOUGLAS        SUNNY     55  29  36 SE5       30.04R
SAFFORD        SUNNY     59  35  40 CALM      29.97R
$$

AZZ020-021-025-026-031-251500-
SOUTHWEST ARIZONA

CITY           SKY/WX    TMP DP  RH WIND       PRES   REMARKS
YUMA           SUNNY     70  55  59 SE7       29.87R
$$

CAZ031-033-041-043-047-048-061-251500-
SOUTHERN CALIFORNIA

CITY           SKY/WX    TMP DP  RH WIND       PRES   REMARKS
DOWNTOWN L.A.  CLOUDY    59  54  83 CALM      29.98R
L.A. AIRPORT   CLOUDY    59  54  83 S5        29.98R
SAN DIEGO      DRIZZLE   62  54  74 NW5       29.98R
BURBANK        PTSUNNY   56  51  84 E6        29.97R
ONTARIO        CLOUDY    56  52  86 W3        29.97R FOG
RIVERSIDE      PTSUNNY   55  52  89 CALM      29.98R
PALM SPRINGS   SUNNY     67  51  56 CALM      29.87R
EL CENTRO NAS  SUNNY     67  49  52 S5        29.86S
IMPERIAL       SUNNY     68  49  50 S3        29.85R
BLYTHE         SUNNY     73  50  44 S9        29.85R
NEEDLES        MOSUNNY   72  51  47 W3        29.87R
$$

NVZ020-UTZ003-251500-
SOUTHERN NEVADA-UTAH

CITY           SKY/WX    TMP DP  RH WIND       PRES   REMARKS
LAS VEGAS      MOSUNNY   64  54  69 S5        29.90R
SALT LAKE CITY PTSUNNY   54  49  83 SE7       29.95R
$$

NMZ009-TXZ055-251500-
NEW MEXICO-WEST TEXAS

CITY           SKY/WX    TMP DP  RH WIND       PRES   REMARKS
ALBUQUERQUE    PTSUNNY   52  44  74 S6        30.01S
EL PASO        SUNNY     64  33  31 SW6       29.97R
$$


........................KEY........................
SKY/WX - SKY CONDITION/WEATHER
TMP    - TEMPERATURE IN FAHRENHEIT
DP     - DEW POINT IN FAHRENHEIT
RH     - RELATIVE HUMIDITY IN PERCENT
WIND   - DIRECTION AND SPEED IN MILES PER HOUR (MPH)
VRB    - VARIABLE WIND DIRECTION
PRES   - MEAN SEA LEVEL PRESSURE IN INCHES OF MERCURY
         F - FALLING PRESSURE   R - RISING PRESSURE
         S - STEADY PRESSURE
VSB    - VISIBILITY IN MILES
HX     - HEAT INDEX IN FAHRENHEIT
WCI    - WIND CHILL INDEX IN FAHRENHEIT
TC     - TEMPERATURE IN CELSIUS WHICH IS ALSO KNOWN AS
         TEMPERATURE IN CENTIGRADE
AFB    - AIR FORCE BASE
         LUKE AFB IS LUKE AIR FORCE BASE
         DAVIS-MONTHAN IS DAVIS-MONTHAN AIR FORCE BASE
NAS    - NAVAL AIR STATION
         EL CENTRO NAS IS EL CENTRO NAVAL AIR STATION
N/A    - NOT AVAILABLE




USA.gov is the U.S. government's official web portal to all federal, state and local government web resources and services.